Location: Cantaing
(50.1487°N, 3.1675°E)
Time: 11:06:10
(UTC+00:00)

Okean 3 - Pass Details

Date: 14 January 2026
Orbit: 541 x 564 km, 82.5° (Epoch: 11 February)

Event Time Altitude Azimuth Distance (km) Brightness Sun altitude
Exits shadow 05:35:52 22° 347° (NNW) 1,217 4.8 -19.4°
Maximum altitude 05:38:22 83° 261° (W) 555 3.1 -19.0°
Drops below altitude 10° 05:42:20 10° 174° (S) 1,803 6.1 -18.4°
Sets 05:44:28 0° 174° (S) 2,689 7.1 -18.0°
